{"data":{"norad_id":68954,"epoch":"2026-09-20T01:19:10.813728Z","epoch_age_seconds":57831,"freshness":"FRESH","line1":"1 68954U 26099D   26263.05498627  .00026609  00000+0  79667-3 0  9998","line2":"2 68954  53.1573  78.0587 0002174  43.0706 317.0466 15.34367841 21830","mean_motion":15.34367841,"eccentricity":0.0002174,"inclination_deg":53.1573,"raan_deg":78.0587,"arg_perigee_deg":43.0706,"mean_anomaly_deg":317.0466,"bstar":0.00079667,"rev_number":2183,"period_min":93.849725047776,"perigee_km":461.31160575336,"apogee_km":464.28604465015,"semimajor_km":6840.9358252018,"source":"CELESTRAK","updated_at":"2026-09-20T09:00:44.052001Z"}}